START_TIME,STEP,MOV.,P1,t_acc.,E44,t_acc.,A3,t_acc.,P10,t_acc.
1981-08-27 15:00:24.020 ,3,0,0.,1.2,6.,1.2,0.,1.2,0.,1.2
1981-08-27 15:00:25.220 ,3,0,0.,1.2,6.,1.2,0.,1.2,0.,1.2
1981-08-27 15:00:26.420 ,3,0,1.,1.2,3.,1.2,0.,1.2,0.,1.2
1981-08-27 15:00:27.620 ,3,0,0.,1.2,4.,1.2,0.,1.2,0.,1.2
1981-08-27 15:00:28.820 ,3,0,1.,1.2,6.,1.2,0.,1.2,0.,1.2
1981-08-27 15:00:30.020 ,3,0,0.,1.2,7.,1.2,0.,1.2,0.,1.2
1981-08-27 15:00:31.220 ,3,0,0.,1.2,6.,1.2,0.,1.2,0.,1.2
1981-08-27 15:00:32.420 ,3,0,0.,1.2,4.,1.2,0.,1.2,0.,1.2
1981-08-27 15:00:33.620 ,3,0,1.,1.2,8.,1.2,0.,1.2,0.,1.2
1981-08-27 15:00:34.820 ,3,0,0.,1.2,5.,1.2,0.,1.2,0.,1.2
1981-08-27 15:00:36.020 ,3,0,0.,1.2,10.,1.2,0.,1.2,0.,1.2
1981-08-27 15:00:37.220 ,3,0,0.,1.2,5.,1.2,0.,1.2,0.,1.2
1981-08-27 15:00:38.420 ,3,0,1.,1.2,6.,1.2,0.,1.2,0.,1.2
1981-08-27 15:00:39.620 ,3,0,0.,1.2,1.,1.2,0.,1.2,0.,1.2
1981-08-27 15:00:40.820 ,3,0,1.,1.2,11.,1.2,0.,1.2,0.,1.2
1981-08-27 15:00:42.020 ,3,0,0.,1.2,7.,1.2,0.,1.2,0.,1.2
1981-08-27 15:00:43.220 ,3,0,0.,1.2,7.,1.2,0.,1.2,0.,1.2
1981-08-27 15:00:44.420 ,3,0,0.,1.2,4.,1.2,0.,1.2,0.,1.2
1981-08-27 15:00:45.620 ,3,0,0.,1.2,5.,1.2,0.,1.2,0.,1.2
1981-08-27 15:00:46.820 ,3,0,1.,1.2,5.,1.2,0.,1.2,0.,1.2
1981-08-27 15:00:48.020 ,4,0,0.,1.2,6.,1.2,0.,1.2,0.,1.2
1981-08-27 15:00:49.220 ,4,0,0.,1.2,2.,1.2,0.,1.2,0.,1.2
1981-08-27 15:00:50.420 ,4,0,0.,1.2,9.,1.2,0.,1.2,0.,1.2
1981-08-27 15:00:51.620 ,4,0,1.,1.2,5.,1.2,0.,1.2,0.,1.2
1981-08-27 15:00:52.820 ,4,0,1.,1.2,4.,1.2,0.,1.2,0.,1.2
1981-08-27 15:00:54.020 ,4,0,1.,1.2,392.,1.2,0.,1.2,0.,1.2
1981-08-27 15:00:55.220 ,4,0,0.,1.2,17.,1.2,0.,1.2,0.,1.2
1981-08-27 15:00:56.420 ,4,0,0.,1.2,10.,1.2,0.,1.2,0.,1.2
1981-08-27 15:00:57.620 ,4,0,0.,1.2,9.,1.2,0.,1.2,0.,1.2
1981-08-27 15:00:58.820 ,4,0,0.,1.2,9.,1.2,0.,1.2,0.,1.2
1981-08-27 15:01:00.020 ,4,0,0.,1.2,7.,1.2,0.,1.2,0.,1.2
1981-08-27 15:01:01.220 ,4,0,1.,1.2,16.,1.2,0.,1.2,0.,1.2
1981-08-27 15:01:02.420 ,4,0,0.,1.2,6.,1.2,0.,1.2,0.,1.2
1981-08-27 15:01:03.620 ,4,0,0.,1.2,6.,1.2,0.,1.2,0.,1.2
1981-08-27 15:01:04.820 ,4,0,0.,1.2,10.,1.2,0.,1.2,0.,1.2
1981-08-27 15:01:06.020 ,4,0,0.,1.2,13.,1.2,0.,1.2,0.,1.2
1981-08-27 15:01:07.220 ,4,0,0.,1.2,16.,1.2,0.,1.2,0.,1.2
1981-08-27 15:01:08.420 ,4,0,0.,1.2,14.,1.2,0.,1.2,0.,1.2
1981-08-27 15:01:09.620 ,4,0,0.,1.2,12.,1.2,0.,1.2,0.,1.2
1981-08-27 15:01:10.820 ,4,0,0.,1.2,13.,1.2,0.,1.2,0.,1.2
1981-08-27 15:01:12.020 ,4,0,1.,1.2,14.,1.2,0.,1.2,0.,1.2
1981-08-27 15:01:13.220 ,4,0,0.,1.2,16.,1.2,0.,1.2,0.,1.2
1981-08-27 15:01:14.420 ,4,0,0.,1.2,17.,1.2,0.,1.2,0.,1.2
1981-08-27 15:01:15.620 ,4,0,0.,1.2,8.,1.2,0.,1.2,0.,1.2
1981-08-27 15:01:16.820 ,4,0,0.,1.2,9.,1.2,0.,1.2,0.,1.2
1981-08-27 15:01:18.020 ,4,0,0.,1.2,15.,1.2,0.,1.2,0.,1.2
1981-08-27 15:01:19.220 ,4,0,0.,1.2,18.,1.2,0.,1.2,0.,1.2
1981-08-27 15:01:20.420 ,4,0,0.,1.2,14.,1.2,0.,1.2,0.,1.2
1981-08-27 15:01:21.620 ,4,0,0.,1.2,18.,1.2,0.,1.2,0.,1.2
1981-08-27 15:01:22.820 ,4,0,0.,1.2,16.,1.2,0.,1.2,0.,1.2
1981-08-27 15:01:24.020 ,4,0,1.,1.2,18.,1.2,0.,1.2,0.,1.2
1981-08-27 15:01:25.220 ,4,0,1.,1.2,7.,1.2,0.,1.2,0.,1.2
1981-08-27 15:01:26.420 ,4,0,0.,1.2,9.,1.2,0.,1.2,0.,1.2
1981-08-27 15:01:27.620 ,4,0,0.,1.2,18.,1.2,0.,1.2,0.,1.2
1981-08-27 15:01:28.820 ,4,0,1.,1.2,12.,1.2,0.,1.2,0.,1.2
1981-08-27 15:01:30.020 ,4,0,0.,1.2,9.,1.2,0.,1.2,0.,1.2
1981-08-27 15:01:31.220 ,4,0,0.,1.2,14.,1.2,0.,1.2,0.,1.2
1981-08-27 15:01:32.420 ,4,0,0.,1.2,10.,1.2,0.,1.2,0.,1.2
1981-08-27 15:01:33.620 ,4,0,1.,1.2,8.,1.2,0.,1.2,0.,1.2
1981-08-27 15:01:34.820 ,4,0,1.,1.2,8.,1.2,0.,1.2,0.,1.2
1981-08-27 15:01:36.020 ,5,0,0.,1.2,5.,1.2,0.,1.2,0.,1.2
1981-08-27 15:01:37.220 ,5,0,0.,1.2,13.,1.2,0.,1.2,0.,1.2
1981-08-27 15:01:38.420 ,5,0,0.,1.2,12.,1.2,0.,1.2,0.,1.2
1981-08-27 15:01:39.620 ,5,0,0.,1.2,4.,1.2,0.,1.2,0.,1.2
1981-08-27 15:01:40.820 ,5,0,0.,1.2,12.,1.2,0.,1.2,0.,1.2
1981-08-27 15:01:42.020 ,5,0,0.,1.2,272.,1.2,0.,1.2,0.,1.2
1981-08-27 15:01:43.220 ,5,0,0.,1.2,16.,1.2,0.,1.2,0.,1.2
1981-08-27 15:01:44.420 ,5,0,0.,1.2,22.,1.2,0.,1.2,0.,1.2
1981-08-27 15:01:45.620 ,5,0,1.,1.2,13.,1.2,0.,1.2,0.,1.2
1981-08-27 15:01:46.820 ,5,0,0.,1.2,12.,1.2,0.,1.2,0.,1.2
1981-08-27 15:01:48.020 ,5,0,0.,1.2,12.,1.2,0.,1.2,0.,1.2
1981-08-27 15:01:49.220 ,5,0,0.,1.2,9.,1.2,0.,1.2,0.,1.2
1981-08-27 15:01:50.420 ,5,0,0.,1.2,14.,1.2,0.,1.2,0.,1.2
1981-08-27 15:01:51.620 ,5,0,0.,1.2,20.,1.2,0.,1.2,0.,1.2
1981-08-27 15:01:52.820 ,5,0,0.,1.2,11.,1.2,0.,1.2,0.,1.2
1981-08-27 15:01:54.020 ,5,0,0.,1.2,10.,1.2,0.,1.2,0.,1.2
1981-08-27 15:01:55.220 ,5,0,0.,1.2,13.,1.2,0.,1.2,0.,1.2
1981-08-27 15:01:56.420 ,5,0,0.,1.2,16.,1.2,0.,1.2,0.,1.2
1981-08-27 15:01:57.620 ,5,0,1.,1.2,14.,1.2,0.,1.2,0.,1.2
1981-08-27 15:01:58.820 ,5,0,0.,1.2,5.,1.2,0.,1.2,0.,1.2
1981-08-27 15:02:00.020 ,5,0,1.,1.2,13.,1.2,0.,1.2,0.,1.2
1981-08-27 15:02:01.220 ,5,0,0.,1.2,12.,1.2,0.,1.2,0.,1.2
1981-08-27 15:02:02.420 ,5,0,0.,1.2,9.,1.2,0.,1.2,0.,1.2
1981-08-27 15:02:03.620 ,5,0,0.,1.2,8.,1.2,0.,1.2,0.,1.2
1981-08-27 15:02:04.820 ,5,0,1.,1.2,16.,1.2,0.,1.2,0.,1.2
1981-08-27 15:02:06.020 ,5,0,1.,1.2,10.,1.2,0.,1.2,0.,1.2
1981-08-27 15:02:07.220 ,5,0,0.,1.2,11.,1.2,0.,1.2,0.,1.2
1981-08-27 15:02:08.420 ,5,0,0.,1.2,11.,1.2,0.,1.2,0.,1.2
1981-08-27 15:02:09.620 ,5,0,0.,1.2,12.,1.2,0.,1.2,0.,1.2
1981-08-27 15:02:10.820 ,5,0,0.,1.2,11.,1.2,0.,1.2,0.,1.2
1981-08-27 15:02:12.020 ,5,0,0.,1.2,10.,1.2,0.,1.2,0.,1.2
1981-08-27 15:02:13.220 ,5,0,0.,1.2,17.,1.2,0.,1.2,0.,1.2
1981-08-27 15:02:14.420 ,5,0,0.,1.2,14.,1.2,0.,1.2,0.,1.2
1981-08-27 15:02:15.620 ,5,0,1.,1.2,11.,1.2,0.,1.2,0.,1.2
1981-08-27 15:02:16.820 ,5,0,0.,1.2,10.,1.2,0.,1.2,0.,1.2
1981-08-27 15:02:18.020 ,5,0,0.,1.2,5.,1.2,0.,1.2,0.,1.2
1981-08-27 15:02:19.220 ,5,0,0.,1.2,8.,1.2,0.,1.2,0.,1.2
1981-08-27 15:02:20.420 ,5,0,0.,1.2,18.,1.2,0.,1.2,0.,1.2
1981-08-27 15:02:21.620 ,5,0,0.,1.2,9.,1.2,0.,1.2,0.,1.2
1981-08-27 15:02:22.820 ,5,0,0.,1.2,9.,1.2,0.,1.2,0.,1.2
1981-08-27 15:02:24.020 ,6,0,1.,1.2,13.,1.2,0.,1.2,0.,1.2
1981-08-27 15:02:25.220 ,6,0,0.,1.2,9.,1.2,0.,1.2,0.,1.2
1981-08-27 15:02:26.420 ,6,0,1.,1.2,8.,1.2,0.,1.2,0.,1.2
1981-08-27 15:02:27.620 ,6,0,0.,1.2,9.,1.2,0.,1.2,0.,1.2
1981-08-27 15:02:28.820 ,6,0,0.,1.2,18.,1.2,0.,1.2,0.,1.2
1981-08-27 15:02:30.020 ,6,0,0.,1.2,352.,1.2,0.,1.2,0.,1.2
1981-08-27 15:02:31.220 ,6,0,1.,1.2,17.,1.2,0.,1.2,0.,1.2
1981-08-27 15:02:32.420 ,6,0,0.,1.2,3.,1.2,0.,1.2,0.,1.2
1981-08-27 15:02:33.620 ,6,0,0.,1.2,8.,1.2,0.,1.2,0.,1.2
1981-08-27 15:02:34.820 ,6,0,0.,1.2,17.,1.2,0.,1.2,0.,1.2
1981-08-27 15:02:36.020 ,6,0,0.,1.2,17.,1.2,0.,1.2,0.,1.2
1981-08-27 15:02:37.220 ,6,0,0.,1.2,13.,1.2,0.,1.2,0.,1.2
1981-08-27 15:02:38.420 ,6,0,0.,1.2,15.,1.2,0.,1.2,0.,1.2
1981-08-27 15:02:39.620 ,6,0,0.,1.2,5.,1.2,0.,1.2,0.,1.2
1981-08-27 15:02:40.820 ,6,0,0.,1.2,11.,1.2,0.,1.2,0.,1.2
1981-08-27 15:02:42.020 ,6,0,0.,1.2,10.,1.2,0.,1.2,0.,1.2
1981-08-27 15:02:43.220 ,6,0,0.,1.2,12.,1.2,0.,1.2,0.,1.2
1981-08-27 15:02:44.420 ,6,0,0.,1.2,9.,1.2,0.,1.2,0.,1.2
1981-08-27 15:02:45.620 ,6,0,0.,1.2,13.,1.2,0.,1.2,0.,1.2
1981-08-27 15:02:46.820 ,6,0,0.,1.2,12.,1.2,0.,1.2,0.,1.2
1981-08-27 15:02:48.020 ,6,0,0.,1.2,12.,1.2,0.,1.2,0.,1.2
1981-08-27 15:02:49.220 ,6,0,0.,1.2,17.,1.2,0.,1.2,0.,1.2
1981-08-27 15:02:50.420 ,6,0,0.,1.2,10.,1.2,0.,1.2,0.,1.2
1981-08-27 15:02:51.620 ,6,0,1.,1.2,18.,1.2,0.,1.2,0.,1.2
1981-08-27 15:02:52.820 ,6,0,0.,1.2,7.,1.2,0.,1.2,0.,1.2
1981-08-27 15:02:54.020 ,6,0,0.,1.2,13.,1.2,0.,1.2,0.,1.2
1981-08-27 15:02:55.220 ,6,0,1.,1.2,9.,1.2,0.,1.2,0.,1.2
1981-08-27 15:02:56.420 ,6,0,1.,1.2,11.,1.2,0.,1.2,0.,1.2
1981-08-27 15:02:57.620 ,6,0,0.,1.2,13.,1.2,0.,1.2,0.,1.2
1981-08-27 15:02:58.820 ,6,0,0.,1.2,9.,1.2,0.,1.2,0.,1.2
1981-08-27 15:03:00.020 ,6,0,0.,1.2,13.,1.2,0.,1.2,0.,1.2
1981-08-27 15:03:01.220 ,6,0,0.,1.2,7.,1.2,0.,1.2,0.,1.2
1981-08-27 15:03:02.420 ,6,0,0.,1.2,11.,1.2,0.,1.2,0.,1.2
1981-08-27 15:03:03.620 ,6,0,0.,1.2,11.,1.2,0.,1.2,0.,1.2
1981-08-27 15:03:04.820 ,6,0,0.,1.2,14.,1.2,0.,1.2,0.,1.2
1981-08-27 15:03:06.020 ,6,0,1.,1.2,16.,1.2,0.,1.2,0.,1.2
1981-08-27 15:03:07.220 ,6,0,0.,1.2,12.,1.2,0.,1.2,0.,1.2
1981-08-27 15:03:08.420 ,6,0,0.,1.2,12.,1.2,0.,1.2,0.,1.2
1981-08-27 15:03:09.620 ,6,0,0.,1.2,13.,1.2,0.,1.2,0.,1.2
1981-08-27 15:03:10.820 ,6,0,0.,1.2,14.,1.2,0.,1.2,0.,1.2
1981-08-27 15:03:12.020 ,7,0,0.,1.2,18.,1.2,0.,1.2,0.,1.2
1981-08-27 15:03:13.220 ,7,0,1.,1.2,12.,1.2,0.,1.2,0.,1.2
1981-08-27 15:03:14.420 ,7,0,0.,1.2,18.,1.2,0.,1.2,0.,1.2
1981-08-27 15:03:15.620 ,7,0,0.,1.2,10.,1.2,0.,1.2,0.,1.2
1981-08-27 15:03:16.820 ,7,0,1.,1.2,13.,1.2,0.,1.2,0.,1.2
1981-08-27 15:03:18.020 ,7,0,1.,1.2,416.,1.2,2.,1.2,0.,1.2
1981-08-27 15:03:19.220 ,7,0,0.,1.2,8.,1.2,4.,1.2,0.,1.2
1981-08-27 15:03:20.420 ,7,0,0.,1.2,10.,1.2,6.,1.2,0.,1.2
1981-08-27 15:03:21.620 ,7,0,0.,1.2,9.,1.2,7.,1.2,0.,1.2
1981-08-27 15:03:22.820 ,7,0,0.,1.2,16.,1.2,10.,1.2,0.,1.2
1981-08-27 15:03:24.020 ,7,0,0.,1.2,14.,1.2,5.,1.2,0.,1.2
1981-08-27 15:03:25.220 ,7,0,0.,1.2,17.,1.2,3.,1.2,0.,1.2
1981-08-27 15:03:26.420 ,7,0,0.,1.2,14.,1.2,2.,1.2,0.,1.2
1981-08-27 15:03:27.620 ,7,0,0.,1.2,18.,1.2,7.,1.2,0.,1.2
1981-08-27 15:03:28.820 ,7,0,0.,1.2,18.,1.2,4.,1.2,0.,1.2
1981-08-27 15:03:30.020 ,7,0,0.,1.2,10.,1.2,3.,1.2,0.,1.2
1981-08-27 15:03:31.220 ,7,0,0.,1.2,13.,1.2,7.,1.2,0.,1.2
1981-08-27 15:03:32.420 ,7,0,0.,1.2,19.,1.2,1.,1.2,0.,1.2
1981-08-27 15:03:33.620 ,7,0,0.,1.2,5.,1.2,3.,1.2,0.,1.2
1981-08-27 15:03:34.820 ,7,0,0.,1.2,14.,1.2,6.,1.2,0.,1.2
1981-08-27 15:03:36.020 ,7,0,0.,1.2,10.,1.2,4.,1.2,0.,1.2
1981-08-27 15:03:37.220 ,7,0,0.,1.2,10.,1.2,5.,1.2,0.,1.2
1981-08-27 15:03:38.420 ,7,0,0.,1.2,16.,1.2,9.,1.2,0.,1.2
1981-08-27 15:03:39.620 ,7,0,0.,1.2,13.,1.2,9.,1.2,0.,1.2
1981-08-27 15:03:40.820 ,7,0,0.,1.2,18.,1.2,7.,1.2,0.,1.2
1981-08-27 15:03:42.020 ,7,0,0.,1.2,11.,1.2,7.,1.2,0.,1.2
1981-08-27 15:03:43.220 ,7,0,0.,1.2,18.,1.2,7.,1.2,0.,1.2
1981-08-27 15:03:44.420 ,7,0,0.,1.2,8.,1.2,3.,1.2,0.,1.2
1981-08-27 15:03:45.620 ,7,0,0.,1.2,12.,1.2,3.,1.2,0.,1.2
1981-08-27 15:03:46.820 ,7,0,0.,1.2,14.,1.2,10.,1.2,0.,1.2
1981-08-27 15:03:48.020 ,7,0,0.,1.2,10.,1.2,4.,1.2,0.,1.2
1981-08-27 15:03:49.220 ,7,0,0.,1.2,15.,1.2,6.,1.2,0.,1.2
1981-08-27 15:03:50.420 ,7,0,0.,1.2,13.,1.2,4.,1.2,0.,1.2
1981-08-27 15:03:51.620 ,7,0,0.,1.2,18.,1.2,3.,1.2,0.,1.2
1981-08-27 15:03:52.820 ,7,0,0.,1.2,17.,1.2,4.,1.2,0.,1.2
1981-08-27 15:03:54.020 ,7,0,0.,1.2,10.,1.2,6.,1.2,0.,1.2
1981-08-27 15:03:55.220 ,7,0,0.,1.2,11.,1.2,8.,1.2,0.,1.2
1981-08-27 15:03:56.420 ,7,0,0.,1.2,11.,1.2,5.,1.2,0.,1.2
1981-08-27 15:03:57.620 ,7,0,0.,1.2,10.,1.2,8.,1.2,0.,1.2
1981-08-27 15:03:58.820 ,7,0,0.,1.2,12.,1.2,2.,1.2,0.,1.2
1981-08-27 15:04:00.020 ,7,0,0.,1.2,14.,1.2,7.,1.2,0.,1.2
1981-08-27 15:04:01.220 ,7,0,0.,1.2,12.,1.2,5.,1.2,0.,1.2
1981-08-27 15:04:02.420 ,7,0,0.,1.2,14.,1.2,3.,1.2,0.,1.2
1981-08-27 15:04:03.620 ,7,0,0.,1.2,6.,1.2,2.,1.2,0.,1.2
1981-08-27 15:04:04.820 ,7,0,0.,1.2,15.,1.2,5.,1.2,0.,1.2
1981-08-27 15:04:06.020 ,7,0,0.,1.2,14.,1.2,5.,1.2,0.,1.2
1981-08-27 15:04:07.220 ,7,0,0.,1.2,15.,1.2,8.,1.2,0.,1.2
1981-08-27 15:04:08.420 ,7,0,0.,1.2,15.,1.2,5.,1.2,0.,1.2
1981-08-27 15:04:09.620 ,7,0,0.,1.2,15.,1.2,5.,1.2,0.,1.2
1981-08-27 15:04:10.820 ,7,0,0.,1.2,17.,1.2,8.,1.2,0.,1.2
1981-08-27 15:04:12.020 ,7,0,0.,1.2,4.,1.2,4.,1.2,0.,1.2
1981-08-27 15:04:13.220 ,7,0,0.,1.2,23.,1.2,3.,1.2,0.,1.2
1981-08-27 15:04:14.420 ,7,0,0.,1.2,8.,1.2,2.,1.2,0.,1.2
1981-08-27 15:04:15.620 ,7,0,0.,1.2,10.,1.2,12.,1.2,0.,1.2
1981-08-27 15:04:16.820 ,7,0,0.,1.2,9.,1.2,8.,1.2,0.,1.2
1981-08-27 15:04:18.020 ,7,0,0.,1.2,14.,1.2,2.,1.2,0.,1.2
1981-08-27 15:04:19.220 ,7,0,0.,1.2,10.,1.2,6.,1.2,0.,1.2
1981-08-27 15:04:20.420 ,7,0,0.,1.2,9.,1.2,1.,1.2,0.,1.2
1981-08-27 15:04:21.620 ,7,0,0.,1.2,12.,1.2,0.,1.2,0.,1.2
1981-08-27 15:04:22.820 ,7,0,0.,1.2,18.,1.2,7.,1.2,0.,1.2
1981-08-27 15:04:24.020 ,6,0,0.,1.2,10.,1.2,6.,1.2,0.,1.2
1981-08-27 15:04:25.220 ,6,0,0.,1.2,12.,1.2,7.,1.2,0.,1.2
1981-08-27 15:04:26.420 ,6,0,0.,1.2,12.,1.2,6.,1.2,0.,1.2
1981-08-27 15:04:27.620 ,6,0,0.,1.2,12.,1.2,10.,1.2,0.,1.2
1981-08-27 15:04:28.820 ,6,0,0.,1.2,8.,1.2,4.,1.2,0.,1.2
1981-08-27 15:04:30.020 ,6,0,0.,1.2,416.,1.2,1.,1.2,0.,1.2
1981-08-27 15:04:31.220 ,6,0,0.,1.2,11.,1.2,0.,1.2,0.,1.2
1981-08-27 15:04:32.420 ,6,0,1.,1.2,15.,1.2,0.,1.2,0.,1.2
1981-08-27 15:04:33.620 ,6,0,1.,1.2,9.,1.2,0.,1.2,0.,1.2
1981-08-27 15:04:34.820 ,6,0,1.,1.2,9.,1.2,0.,1.2,0.,1.2
1981-08-27 15:04:36.020 ,6,0,0.,1.2,20.,1.2,0.,1.2,0.,1.2
1981-08-27 15:04:37.220 ,6,0,0.,1.2,9.,1.2,0.,1.2,0.,1.2
1981-08-27 15:04:38.420 ,6,0,0.,1.2,12.,1.2,0.,1.2,0.,1.2
1981-08-27 15:04:39.620 ,6,0,0.,1.2,12.,1.2,0.,1.2,0.,1.2
1981-08-27 15:04:40.820 ,6,0,0.,1.2,7.,1.2,0.,1.2,0.,1.2
1981-08-27 15:04:42.020 ,6,0,0.,1.2,13.,1.2,0.,1.2,0.,1.2
1981-08-27 15:04:43.220 ,6,0,0.,1.2,7.,1.2,0.,1.2,0.,1.2
1981-08-27 15:04:44.420 ,6,0,0.,1.2,9.,1.2,0.,1.2,0.,1.2
1981-08-27 15:04:45.620 ,6,0,0.,1.2,13.,1.2,0.,1.2,0.,1.2
1981-08-27 15:04:46.820 ,6,0,1.,1.2,15.,1.2,0.,1.2,0.,1.2
1981-08-27 15:04:48.020 ,5,0,0.,1.2,11.,1.2,0.,1.2,0.,1.2
1981-08-27 15:04:49.220 ,5,0,0.,1.2,10.,1.2,0.,1.2,0.,1.2
1981-08-27 15:04:50.420 ,5,0,1.,1.2,9.,1.2,0.,1.2,0.,1.2
1981-08-27 15:04:51.620 ,5,0,0.,1.2,13.,1.2,0.,1.2,0.,1.2
1981-08-27 15:04:52.820 ,5,0,0.,1.2,10.,1.2,0.,1.2,0.,1.2
1981-08-27 15:04:54.020 ,5,0,0.,1.2,376.,1.2,0.,1.2,0.,1.2
1981-08-27 15:04:55.220 ,5,0,0.,1.2,15.,1.2,0.,1.2,0.,1.2
1981-08-27 15:04:56.420 ,5,0,1.,1.2,17.,1.2,0.,1.2,0.,1.2
1981-08-27 15:04:57.620 ,5,0,0.,1.2,12.,1.2,0.,1.2,0.,1.2
1981-08-27 15:04:58.820 ,5,0,0.,1.2,9.,1.2,0.,1.2,0.,1.2
1981-08-27 15:05:00.020 ,5,0,1.,1.2,9.,1.2,0.,1.2,0.,1.2
1981-08-27 15:05:01.220 ,5,0,1.,1.2,7.,1.2,0.,1.2,0.,1.2
1981-08-27 15:05:02.420 ,5,0,0.,1.2,20.,1.2,0.,1.2,0.,1.2
1981-08-27 15:05:03.620 ,5,0,0.,1.2,17.,1.2,0.,1.2,0.,1.2
1981-08-27 15:05:04.820 ,5,0,0.,1.2,9.,1.2,0.,1.2,0.,1.2
1981-08-27 15:05:06.020 ,5,0,0.,1.2,16.,1.2,0.,1.2,0.,1.2
1981-08-27 15:05:07.220 ,5,0,0.,1.2,12.,1.2,0.,1.2,0.,1.2
1981-08-27 15:05:08.420 ,5,0,0.,1.2,11.,1.2,0.,1.2,0.,1.2
1981-08-27 15:05:09.620 ,5,0,0.,1.2,11.,1.2,0.,1.2,0.,1.2
1981-08-27 15:05:10.820 ,5,0,0.,1.2,13.,1.2,0.,1.2,0.,1.2
1981-08-27 15:05:12.020 ,4,0,0.,1.2,15.,1.2,0.,1.2,0.,1.2
1981-08-27 15:05:13.220 ,4,0,1.,1.2,13.,1.2,0.,1.2,0.,1.2
1981-08-27 15:05:14.420 ,4,0,0.,1.2,7.,1.2,0.,1.2,0.,1.2
1981-08-27 15:05:15.620 ,4,0,0.,1.2,13.,1.2,0.,1.2,0.,1.2
1981-08-27 15:05:16.820 ,4,0,0.,1.2,11.,1.2,0.,1.2,0.,1.2
1981-08-27 15:05:18.020 ,4,0,0.,1.2,304.,1.2,0.,1.2,0.,1.2
1981-08-27 15:05:19.220 ,4,0,0.,1.2,17.,1.2,0.,1.2,0.,1.2
1981-08-27 15:05:20.420 ,4,0,0.,1.2,20.,1.2,0.,1.2,0.,1.2
1981-08-27 15:05:21.620 ,4,0,0.,1.2,8.,1.2,0.,1.2,0.,1.2
1981-08-27 15:05:22.820 ,4,0,0.,1.2,12.,1.2,0.,1.2,0.,1.2
1981-08-27 15:05:24.020 ,4,0,1.,1.2,17.,1.2,0.,1.2,0.,1.2
1981-08-27 15:05:25.220 ,4,0,0.,1.2,11.,1.2,0.,1.2,0.,1.2
1981-08-27 15:05:26.420 ,4,0,1.,1.2,13.,1.2,0.,1.2,0.,1.2
1981-08-27 15:05:27.620 ,4,0,0.,1.2,12.,1.2,0.,1.2,0.,1.2
1981-08-27 15:05:28.820 ,4,0,0.,1.2,11.,1.2,0.,1.2,0.,1.2
1981-08-27 15:05:30.020 ,4,0,0.,1.2,8.,1.2,0.,1.2,0.,1.2
1981-08-27 15:05:31.220 ,4,0,0.,1.2,8.,1.2,0.,1.2,0.,1.2
1981-08-27 15:05:32.420 ,4,0,0.,1.2,11.,1.2,0.,1.2,0.,1.2
1981-08-27 15:05:33.620 ,4,0,0.,1.2,14.,1.2,0.,1.2,0.,1.2
1981-08-27 15:05:34.820 ,4,0,0.,1.2,18.,1.2,0.,1.2,0.,1.2
1981-08-27 15:06:24.020 ,0,0,0.,1.2,6.,1.2,0.,1.2,0.,1.2
1981-08-27 15:06:25.220 ,0,0,0.,1.2,10.,1.2,0.,1.2,0.,1.2
1981-08-27 15:06:26.420 ,0,0,0.,1.2,9.,1.2,0.,1.2,0.,1.2
1981-08-27 15:06:27.620 ,0,0,0.,1.2,11.,1.2,0.,1.2,0.,1.2
1981-08-27 15:06:28.820 ,0,0,0.,1.2,12.,1.2,0.,1.2,0.,1.2
1981-08-27 15:06:30.020 ,0,0,0.,1.2,368.,1.2,0.,1.2,0.,1.2
1981-08-27 15:06:31.220 ,0,0,0.,1.2,9.,1.2,0.,1.2,0.,1.2
1981-08-27 15:06:32.420 ,0,0,0.,1.2,13.,1.2,0.,1.2,0.,1.2
1981-08-27 15:06:33.620 ,0,0,0.,1.2,11.,1.2,0.,1.2,0.,1.2
1981-08-27 15:06:34.820 ,0,0,0.,1.2,11.,1.2,0.,1.2,0.,1.2
1981-08-27 15:06:36.020 ,0,0,0.,1.2,11.,1.2,0.,1.2,0.,1.2
1981-08-27 15:06:37.220 ,0,0,0.,1.2,6.,1.2,0.,1.2,0.,1.2
1981-08-27 15:06:38.420 ,0,0,0.,1.2,5.,1.2,0.,1.2,0.,1.2
1981-08-27 15:06:39.620 ,0,0,0.,1.2,6.,1.2,0.,1.2,0.,1.2
1981-08-27 15:06:40.820 ,0,0,0.,1.2,11.,1.2,0.,1.2,0.,1.2
1981-08-27 15:06:42.020 ,0,0,0.,1.2,6.,1.2,0.,1.2,0.,1.2
1981-08-27 15:06:43.220 ,0,0,0.,1.2,7.,1.2,0.,1.2,0.,1.2
1981-08-27 15:06:44.420 ,0,0,0.,1.2,13.,1.2,0.,1.2,0.,1.2
1981-08-27 15:06:45.620 ,0,0,0.,1.2,6.,1.2,0.,1.2,0.,1.2
1981-08-27 15:06:46.820 ,0,0,0.,1.2,10.,1.2,0.,1.2,0.,1.2
1981-08-27 15:06:48.020 ,0,0,2.,1.2,10.,1.2,0.,1.2,0.,1.2
1981-08-27 15:06:49.220 ,0,0,0.,1.2,10.,1.2,0.,1.2,0.,1.2
1981-08-27 15:06:50.420 ,0,0,0.,1.2,12.,1.2,0.,1.2,0.,1.2
1981-08-27 15:06:51.620 ,0,0,0.,1.2,5.,1.2,0.,1.2,0.,1.2
1981-08-27 15:06:52.820 ,0,0,0.,1.2,8.,1.2,0.,1.2,0.,1.2
1981-08-27 15:06:54.020 ,0,0,0.,1.2,448.,1.2,0.,1.2,0.,1.2
1981-08-27 15:06:55.220 ,0,0,0.,1.2,8.,1.2,0.,1.2,0.,1.2
1981-08-27 15:06:56.420 ,0,0,0.,1.2,9.,1.2,0.,1.2,0.,1.2
1981-08-27 15:06:57.620 ,0,0,0.,1.2,8.,1.2,0.,1.2,0.,1.2
1981-08-27 15:06:58.820 ,0,0,1.,1.2,19.,1.2,0.,1.2,0.,1.2
1981-08-27 15:07:00.020 ,0,0,0.,1.2,6.,1.2,1.,1.2,0.,1.2
1981-08-27 15:07:01.220 ,0,0,0.,1.2,13.,1.2,0.,1.2,0.,1.2
1981-08-27 15:07:02.420 ,0,0,0.,1.2,11.,1.2,0.,1.2,0.,1.2
1981-08-27 15:07:03.620 ,0,0,0.,1.2,13.,1.2,0.,1.2,0.,1.2
1981-08-27 15:07:04.820 ,0,0,0.,1.2,11.,1.2,0.,1.2,0.,1.2
1981-08-27 15:07:06.020 ,0,0,0.,1.2,9.,1.2,0.,1.2,0.,1.2
1981-08-27 15:07:07.220 ,0,0,0.,1.2,10.,1.2,0.,1.2,0.,1.2
1981-08-27 15:07:08.420 ,0,0,0.,1.2,8.,1.2,0.,1.2,0.,1.2
1981-08-27 15:07:09.620 ,0,0,0.,1.2,7.,1.2,0.,1.2,0.,1.2
1981-08-27 15:07:10.820 ,0,0,0.,1.2,12.,1.2,0.,1.2,0.,1.2
1981-08-27 15:07:12.020 ,0,0,0.,1.2,8.,1.2,0.,1.2,0.,1.2
1981-08-27 15:07:13.220 ,0,0,0.,1.2,7.,1.2,0.,1.2,0.,1.2
1981-08-27 15:07:14.420 ,0,0,0.,1.2,9.,1.2,0.,1.2,0.,1.2
1981-08-27 15:07:15.620 ,0,0,0.,1.2,13.,1.2,0.,1.2,0.,1.2
1981-08-27 15:07:16.820 ,0,0,0.,1.2,10.,1.2,0.,1.2,0.,1.2
1981-08-27 15:07:18.020 ,0,0,0.,1.2,21.,1.2,0.,1.2,0.,1.2
1981-08-27 15:07:19.220 ,0,0,0.,1.2,14.,1.2,0.,1.2,0.,1.2
1981-08-27 15:07:20.420 ,0,0,0.,1.2,10.,1.2,0.,1.2,0.,1.2
1981-08-27 15:07:21.620 ,0,0,0.,1.2,6.,1.2,0.,1.2,0.,1.2
1981-08-27 15:07:22.820 ,0,0,0.,1.2,11.,1.2,0.,1.2,0.,1.2
1981-08-27 15:07:24.020 ,0,0,0.,1.2,13.,1.2,0.,1.2,0.,1.2
1981-08-27 15:07:25.220 ,0,0,0.,1.2,12.,1.2,0.,1.2,0.,1.2
1981-08-27 15:07:26.420 ,0,0,0.,1.2,4.,1.2,0.,1.2,0.,1.2
1981-08-27 15:07:27.620 ,0,0,0.,1.2,10.,1.2,0.,1.2,0.,1.2
1981-08-27 15:07:28.820 ,0,0,1.,1.2,13.,1.2,0.,1.2,0.,1.2
1981-08-27 15:07:30.020 ,0,0,1.,1.2,14.,1.2,0.,1.2,0.,1.2
1981-08-27 15:07:31.220 ,0,0,0.,1.2,13.,1.2,0.,1.2,0.,1.2
1981-08-27 15:07:32.420 ,0,0,0.,1.2,12.,1.2,0.,1.2,0.,1.2
1981-08-27 15:07:33.620 ,0,0,1.,1.2,10.,1.2,0.,1.2,0.,1.2
1981-08-27 15:07:34.820 ,0,0,0.,1.2,11.,1.2,0.,1.2,0.,1.2
1981-08-27 15:07:36.020 ,1,0,3.,1.2,9.,1.2,0.,1.2,0.,1.2
1981-08-27 15:07:37.220 ,1,0,0.,1.2,9.,1.2,0.,1.2,0.,1.2
1981-08-27 15:07:38.420 ,1,0,0.,1.2,9.,1.2,0.,1.2,0.,1.2
1981-08-27 15:07:39.620 ,1,0,1.,1.2,18.,1.2,0.,1.2,0.,1.2
1981-08-27 15:07:40.820 ,1,0,0.,1.2,9.,1.2,0.,1.2,0.,1.2
1981-08-27 15:07:42.020 ,1,0,0.,1.2,488.,1.2,0.,1.2,0.,1.2
1981-08-27 15:07:43.220 ,1,0,0.,1.2,13.,1.2,0.,1.2,0.,1.2
1981-08-27 15:07:44.420 ,1,0,0.,1.2,13.,1.2,0.,1.2,0.,1.2
1981-08-27 15:07:45.620 ,1,0,1.,1.2,7.,1.2,0.,1.2,0.,1.2
1981-08-27 15:07:46.820 ,1,0,0.,1.2,11.,1.2,0.,1.2,0.,1.2
1981-08-27 15:07:48.020 ,1,0,0.,1.2,9.,1.2,0.,1.2,0.,1.2
1981-08-27 15:07:49.220 ,1,0,1.,1.2,8.,1.2,0.,1.2,0.,1.2
1981-08-27 15:07:50.420 ,1,0,1.,1.2,10.,1.2,0.,1.2,0.,1.2
1981-08-27 15:07:51.620 ,1,0,0.,1.2,8.,1.2,0.,1.2,0.,1.2
1981-08-27 15:07:52.820 ,1,0,0.,1.2,7.,1.2,0.,1.2,0.,1.2
1981-08-27 15:07:54.020 ,1,0,0.,1.2,12.,1.2,0.,1.2,0.,1.2
1981-08-27 15:07:55.220 ,1,0,1.,1.2,14.,1.2,0.,1.2,0.,1.2
1981-08-27 15:07:56.420 ,1,0,1.,1.2,4.,1.2,0.,1.2,1.,1.2
1981-08-27 15:07:57.620 ,1,0,1.,1.2,10.,1.2,0.,1.2,0.,1.2
1981-08-27 15:07:58.820 ,1,0,0.,1.2,7.,1.2,0.,1.2,0.,1.2
1981-08-27 15:08:00.020 ,2,0,1.,1.2,11.,1.2,0.,1.2,0.,1.2
1981-08-27 15:08:01.220 ,2,0,0.,1.2,10.,1.2,0.,1.2,0.,1.2
1981-08-27 15:08:02.420 ,2,0,1.,1.2,10.,1.2,0.,1.2,0.,1.2
1981-08-27 15:08:03.620 ,2,0,0.,1.2,11.,1.2,0.,1.2,0.,1.2
1981-08-27 15:08:04.820 ,2,0,0.,1.2,10.,1.2,0.,1.2,0.,1.2
1981-08-27 15:08:06.020 ,2,0,0.,1.2,328.,1.2,1.,1.2,0.,1.2
1981-08-27 15:08:07.220 ,2,0,0.,1.2,8.,1.2,0.,1.2,0.,1.2
1981-08-27 15:08:08.420 ,2,0,0.,1.2,9.,1.2,0.,1.2,0.,1.2
1981-08-27 15:08:09.620 ,2,0,0.,1.2,6.,1.2,0.,1.2,0.,1.2
1981-08-27 15:08:10.820 ,2,0,0.,1.2,6.,1.2,0.,1.2,0.,1.2
1981-08-27 15:08:12.020 ,2,0,0.,1.2,15.,1.2,0.,1.2,0.,1.2
1981-08-27 15:08:13.220 ,2,0,0.,1.2,12.,1.2,0.,1.2,0.,1.2
1981-08-27 15:08:14.420 ,2,0,0.,1.2,11.,1.2,0.,1.2,0.,1.2
1981-08-27 15:08:15.620 ,2,0,0.,1.2,9.,1.2,0.,1.2,0.,1.2
1981-08-27 15:08:16.820 ,2,0,0.,1.2,14.,1.2,0.,1.2,0.,1.2
1981-08-27 15:08:18.020 ,2,0,1.,1.2,7.,1.2,0.,1.2,0.,1.2
1981-08-27 15:08:19.220 ,2,0,0.,1.2,12.,1.2,0.,1.2,0.,1.2
1981-08-27 15:08:20.420 ,2,0,0.,1.2,9.,1.2,0.,1.2,0.,1.2
1981-08-27 15:08:21.620 ,2,0,0.,1.2,12.,1.2,0.,1.2,0.,1.2
1981-08-27 15:08:22.820 ,2,0,0.,1.2,4.,1.2,0.,1.2,0.,1.2
1981-08-27 15:08:24.020 ,3,0,0.,1.2,10.,1.2,0.,1.2,0.,1.2
1981-08-27 15:08:25.220 ,3,0,0.,1.2,8.,1.2,0.,1.2,0.,1.2
1981-08-27 15:08:26.420 ,3,0,0.,1.2,9.,1.2,0.,1.2,0.,1.2
1981-08-27 15:08:27.620 ,3,0,0.,1.2,8.,1.2,0.,1.2,0.,1.2
1981-08-27 15:08:28.820 ,3,0,0.,1.2,13.,1.2,0.,1.2,0.,1.2
1981-08-27 15:08:30.020 ,3,0,0.,1.2,400.,1.2,0.,1.2,0.,1.2
1981-08-27 15:08:31.220 ,3,0,0.,1.2,5.,1.2,0.,1.2,0.,1.2
1981-08-27 15:08:32.420 ,3,0,1.,1.2,6.,1.2,0.,1.2,0.,1.2
1981-08-27 15:08:33.620 ,3,0,0.,1.2,9.,1.2,0.,1.2,0.,1.2
1981-08-27 15:08:34.820 ,3,0,0.,1.2,5.,1.2,0.,1.2,0.,1.2
1981-08-27 15:08:36.020 ,3,0,0.,1.2,5.,1.2,0.,1.2,0.,1.2
1981-08-27 15:08:37.220 ,3,0,0.,1.2,4.,1.2,0.,1.2,0.,1.2
1981-08-27 15:08:38.420 ,3,0,1.,1.2,8.,1.2,0.,1.2,0.,1.2
1981-08-27 15:08:39.620 ,3,0,0.,1.2,5.,1.2,0.,1.2,0.,1.2
1981-08-27 15:08:40.820 ,3,0,0.,1.2,6.,1.2,0.,1.2,0.,1.2
1981-08-27 15:08:42.020 ,3,0,1.,1.2,5.,1.2,0.,1.2,0.,1.2
1981-08-27 15:08:43.220 ,3,0,0.,1.2,3.,1.2,0.,1.2,0.,1.2
1981-08-27 15:08:44.420 ,3,0,1.,1.2,8.,1.2,0.,1.2,0.,1.2
1981-08-27 15:08:45.620 ,3,0,1.,1.2,4.,1.2,0.,1.2,0.,1.2
1981-08-27 15:08:46.820 ,3,0,1.,1.2,9.,1.2,0.,1.2,0.,1.2
1981-08-27 15:08:48.020 ,4,0,0.,1.2,8.,1.2,0.,1.2,0.,1.2
1981-08-27 15:08:49.220 ,4,0,0.,1.2,3.,1.2,0.,1.2,0.,1.2
1981-08-27 15:08:50.420 ,4,0,0.,1.2,3.,1.2,0.,1.2,0.,1.2
1981-08-27 15:08:51.620 ,4,0,0.,1.2,6.,1.2,0.,1.2,0.,1.2
1981-08-27 15:08:52.820 ,4,0,0.,1.2,4.,1.2,0.,1.2,0.,1.2
1981-08-27 15:08:54.020 ,4,0,0.,1.2,352.,1.2,0.,1.2,0.,1.2
1981-08-27 15:08:55.220 ,4,0,0.,1.2,7.,1.2,0.,1.2,0.,1.2
1981-08-27 15:08:56.420 ,4,0,1.,1.2,11.,1.2,0.,1.2,0.,1.2
1981-08-27 15:08:57.620 ,4,0,1.,1.2,9.,1.2,0.,1.2,0.,1.2
1981-08-27 15:08:58.820 ,4,0,0.,1.2,8.,1.2,0.,1.2,0.,1.2
1981-08-27 15:09:00.020 ,4,0,0.,1.2,10.,1.2,0.,1.2,0.,1.2
1981-08-27 15:09:01.220 ,4,0,0.,1.2,10.,1.2,0.,1.2,0.,1.2
1981-08-27 15:09:02.420 ,4,0,0.,1.2,16.,1.2,0.,1.2,0.,1.2
1981-08-27 15:09:03.620 ,4,0,0.,1.2,9.,1.2,0.,1.2,0.,1.2
1981-08-27 15:09:04.820 ,4,0,0.,1.2,8.,1.2,0.,1.2,0.,1.2
1981-08-27 15:09:06.020 ,4,0,0.,1.2,7.,1.2,0.,1.2,0.,1.2
1981-08-27 15:09:07.220 ,4,0,1.,1.2,6.,1.2,0.,1.2,0.,1.2
1981-08-27 15:09:08.420 ,4,0,1.,1.2,10.,1.2,0.,1.2,0.,1.2
1981-08-27 15:09:09.620 ,4,0,0.,1.2,15.,1.2,0.,1.2,0.,1.2
1981-08-27 15:09:10.820 ,4,0,0.,1.2,6.,1.2,0.,1.2,0.,1.2
1981-08-27 15:09:12.020 ,5,0,0.,1.2,6.,1.2,0.,1.2,0.,1.2
1981-08-27 15:09:13.220 ,5,0,0.,1.2,6.,1.2,0.,1.2,0.,1.2
1981-08-27 15:09:14.420 ,5,0,0.,1.2,9.,1.2,0.,1.2,0.,1.2
1981-08-27 15:09:15.620 ,5,0,0.,1.2,6.,1.2,0.,1.2,0.,1.2
1981-08-27 15:09:16.820 ,5,0,0.,1.2,11.,1.2,0.,1.2,0.,1.2
1981-08-27 15:09:18.020 ,5,0,2.,1.2,328.,1.2,0.,1.2,0.,1.2
1981-08-27 15:09:19.220 ,5,0,0.,1.2,14.,1.2,0.,1.2,0.,1.2
1981-08-27 15:09:20.420 ,5,0,0.,1.2,6.,1.2,0.,1.2,0.,1.2